• MPC Preparation (Info)

  • MPEC 2013-J27 : 2013 JM7

    The following Minor Planet Electronic Circular may be linked-to from your own Web pages, but must not otherwise be redistributed electronically.

    A form allowing access to any MPEC is at the bottom of this page.


    Read MPEC 2013-J26 Read MPEC 2013-J28


    M.P.E.C. 2013-J27                                Issued 2013 May 8, 17:04 UT
    
         The Minor Planet Electronic Circulars contain information on unusual
             minor planets and routine data on comets.  They are published
       on behalf of Commission 20 of the International Astronomical Union by the
              Minor Planet Center, Smithsonian Astrophysical Observatory,
                              Cambridge, MA 02138, U.S.A.
    
                 Prepared using the Tamkin Foundation Computer Network
    
                                  MPC@CFA.HARVARD.EDU
                URL https://www.minorplanetcenter.net/    ISSN 1523-6714
    
                                       2013 JM7
    
    Observations:
         K13J07M* C2013 05 05.39241 14 50 32.777-20 49 10.70         20.6 wLEJ027F51
         K13J07M  C2013 05 05.40723 14 50 30.726-20 48 57.01         20.5 wLEJ027F51
         K13J07M  C2013 05 05.42201 14 50 28.673-20 48 43.08         20.5 wLEJ027F51
         K13J07M  C2013 05 05.43680 14 50 26.627-20 48 29.23         20.6 wLEJ027F51
         K13J07M |C2013 05 06.26976 14 48 36.62 -20 35 08.8          20.5 VuEJ027807
         K13J07M |C2013 05 06.27337 14 48 36.10 -20 35 05.4          20.8 VuEJ027807
         K13J07M |C2013 05 06.27699 14 48 35.60 -20 35 02.0          20.6 VuEJ027807
         K13J07M |C2013 05 06.28060 14 48 35.11 -20 34 58.6          20.8 VuEJ027807
         K13J07M |C2013 05 06.28422 14 48 34.60 -20 34 55.1          20.8 VuEJ027807
         K13J07M KC2013 05 06.98509114 47 02.69 -20 23 44.9          20.8 VqEJ027K91
         K13J07M KC2013 05 06.98930314 47 02.11 -20 23 40.7          20.7 VqEJ027K91
         K13J07M KC2013 05 06.99288414 47 01.61 -20 23 37.2          20.8 VqEJ027K91
         K13J07M |C2013 05 08.23253 14 44 19.02 -20 03 35.7          20.6 VuEJ027807
         K13J07M |C2013 05 08.24001 14 44 18.02 -20 03 27.8          20.5 VuEJ027807
         K13J07M |C2013 05 08.24363 14 44 17.52 -20 03 24.2          20.8 VuEJ027807
    
    Observer details:
    807 Cerro Tololo.  Observers T. Linder, R. Holmes.  0.41-m f/11
        Ritchey-Chretien + CCD.
    F51 Pan-STARRS 1, Haleakala.  Observers N. Primak, A. Schultz, S. Watters,
        T. Goggia.  Measurer PS1 Science Consortium.  1.8-m Ritchey-Chretien
        + CCD.
    K91 Sutherland-LCOGT A.  Observer T. Lister.  1.0-m f/8 Ritchey-Chretien + CCD.
    
    Orbital elements:
    2013 JM7                                                 Earth MOID = 0.0520 AU
    Epoch 2013 Apr. 18.0 TT = JDT 2456400.5                 MPC
    M 179.32792              (2000.0)            P               Q
    n   0.73839107     Peri.  156.08043     +0.78364056     -0.61609480
    a   1.2123046      Node   242.19006     +0.55445676     +0.75144301
    e   0.2857951      Incl.    5.16267     +0.28015206     +0.23613682
    P   1.33           H   20.6           G   0.15           U   9
    Residuals in seconds of arc
    130505 F51  0.1+  0.0     130506 807  0.1-  0.0     130506 K91  0.0   0.2-
    130505 F51  0.1+  0.0     130506 807  0.2-  0.1-    130506 K91  0.2-  0.2-
    130505 F51  0.1-  0.1+    130506 807  0.1-  0.2-    130508 807  0.1-  0.1-
    130505 F51  0.1-  0.1+    130506 807  0.3-  0.2-    130508 807  0.2+  0.4+
    130506 807  0.2+  0.0     130506 K91  0.0   0.3-    130508 807  0.2+  0.4+
    
    Ephemeris:
    2013 JM7                 a,e,i = 1.21, 0.29, 5                   q = 0.8658
    Date    TT    R. A. (2000) Decl.     Delta      r     Elong.  Phase     V
    2013 04 08    15 37 44.0 -25 29 29   0.6523  1.5567   139.6    24.6    21.8
    ...
    2013 04 23    15 16 14.8 -23 35 15   0.5770  1.5585   159.3    13.2    21.1
    ...
    2013 05 01    15 00 05.4 -21 54 37   0.5536  1.5562   170.5     6.1    20.8
    ...
    2013 05 07    14 47 01.1 -20 23 35   0.5450  1.5531   175.8     2.7    20.5
    2013 05 08    14 44 49.9 -20 07 26   0.5443  1.5524   175.3     3.0    20.5
    2013 05 09    14 42 39.2 -19 51 06   0.5439  1.5518   174.4     3.6    20.6
    ...
    2013 05 15    14 29 59.8 -18 10 25   0.5460  1.5469   166.4     8.8    20.8
    ...
    2013 05 23    14 15 12.9 -15 57 49   0.5604  1.5386   155.0    16.2    21.2
    ...
    2013 06 07    13 57 17.1 -12 35 09   0.6163  1.5169   135.4    28.0    21.7
    
    A. U. Tomatic                (C) Copyright 2013 MPC           M.P.E.C. 2013-J27
    

    Read MPEC 2013-J26 Read MPEC 2013-J28


    MPEC number:

    Enter an MPEC number in one of the following forms:

    • 1997-B01 (the full form)
    • J97B01 (the packed version of the full form)
    • B01 (the abbreviated form)